This is the latest recevied weather packets stored in our database for station/object M0JUI-1. If no packets are shown the sender has not sent any weather packets the latest 10 day(s).
| Time | Temp. | Humidity | Pressure | Rain* | Wind** | Luminosity | Snow |
|---|---|---|---|---|---|---|---|
| 1777565474 | 20.56° C | 51% | 1020.5 hPa | 0 mm | - | 199 W/m² | - |
| 1777565174 | 20.56° C | 50% | 1020.4 hPa | 0 mm | - | 297 W/m² | - |
| 1777564875 | 20.56° C | 50% | 1020.5 hPa | 0 mm | - | 187 W/m² | - |
| 1777564574 | 20.56° C | 50% | 1020.7 hPa | 0 mm | - | 235 W/m² | - |
| 1777564274 | 20.56° C | 49% | 1020.6 hPa | 0 mm | - | 246 W/m² | - |
| 1777563974 | 21.11° C | 49% | 1020.8 hPa | 0 mm | - | 292 W/m² | - |
| 1777563674 | 21.11° C | 49% | 1020.6 hPa | 0 mm | - | 360 W/m² | - |
| 1777563374 | 20.56° C | 49% | 1020.8 hPa | 0 mm | - | 310 W/m² | - |
| 1777563075 | 21.11° C | 49% | 1020.9 hPa | 0 mm | - | 324 W/m² | - |
| 1777562774 | 21.11° C | 50% | 1020.9 hPa | 0 mm | - | 393 W/m² | - |
| 1777562474 | 21.11° C | 49% | 1020.8 hPa | 0 mm | - | 324 W/m² | - |
| 1777562174 | 21.11° C | 49% | 1020.7 hPa | 0 mm | - | 367 W/m² | - |
| 1777561874 | 21.11° C | 50% | 1020.9 hPa | 0 mm | - | 386 W/m² | - |
| 1777561574 | 21.11° C | 50% | 1020.8 hPa | 0 mm | - | 468 W/m² | - |
| 1777561274 | 21.11° C | 50% | 1021.2 hPa | 0 mm | - | 509 W/m² | - |
| 1777560974 | 21.11° C | 51% | 1021.2 hPa | 0 mm | - | 507 W/m² | - |
| 1777560664 | 21.11° C | 50% | 1021.2 hPa | 0 mm | - | 520 W/m² | - |
| 1777560363 | 21.67° C | 50% | 1021.4 hPa | 0 mm | - | 535 W/m² | - |
| 1777560062 | 21.11° C | 51% | 1021.6 hPa | 0 mm | - | 546 W/m² | - |
| 1777559750 | 21.11° C | 51% | 1021.4 hPa | 0 mm | - | 544 W/m² | - |
| 1777559451 | 21.11° C | 52% | 1021.3 hPa | 0 mm | - | 558 W/m² | - |
| 1777559151 | 21.67° C | 51% | 1021.4 hPa | 0 mm | - | 565 W/m² | - |
| 1777558838 | 21.11° C | 52% | 1021.4 hPa | 0 mm | - | 575 W/m² | - |
| 1777558539 | 21.11° C | 51% | 1021.4 hPa | 0 mm | - | 547 W/m² | - |
| 1777558238 | 21.11° C | 52% | 1021.6 hPa | 0 mm | - | 547 W/m² | - |
* Rain latest hour (hover to see other rain measurements)
** Current wind speed in m/s (hover to see current wind gust speed)